Location: Pedholt
(56.0260°N, 10.2097°E)
Time: 23:44:13
(UTC+00:00)

X-37B - Visible Passes

Search period start: 17 June 2021 00:00
Search period end: 27 June 2021 00:00
Orbit: 386 x 389 km, 45.0° (Epoch: 10 June)

Date Brightness Start Highest point End Pass type
(mag) Time Alt. Az. Time Alt. Az. Time Alt. Az.
18 Jun 2.7 00:48:20 11° S 00:48:49 11° S 00:49:48 10° SSE visible
19 Jun 2.7 01:25:15 10° SSW 01:26:28 12° S 01:27:42 10° SSE visible
20 Jun 2.7 00:28:47 12° S 00:28:47 12° S 00:29:41 10° SSE visible
21 Jun 2.7 01:05:32 10° SSW 01:06:03 11° S 01:06:51 10° S visible
25 Jun 2.6 21:50:11 10° SSW 21:51:28 12° S 21:51:53 12° S visible
